RH
18 25 36 40 42 42 40 39 36 36 34 34 33 33 34 33 32 29 28 28 27 24 21 19 19 20 21 22 23 23 22 19 13 10 9 11 14 18 21 22 22 23 23 22 22 23 24 24 24 24 24 24 23 24 23 22 22 23 24 24 23 23 22 21 21 20 18 16 14 11 9 7 5 4 3 2 2 3 8 13 11 4 2 2 2
27 33 40 40 44 43 42 41 38 37 35 35 33 34 34 34 33 30 29 29 29 26 23 20 19 21 22 23 24 24 24 21 15 11 8 10 13 17 19 21 23 23 23 22 22 23 25 25 25 25 24 24 24 25 23 22 23 23 24 25 24 24 23 22 22 22 20 19 18 17 15 13 11 9 7 5 4 2 3 8 12 8 2 2 3
29 33 41 43 46 45 44 42 40 39 37 37 35 35 35 35 34 31 30 30 31 27 24 21 20 24 25 24 25 26 26 24 18 12 9 9 12 15 19 21 23 23 23 23 22 23 24 26 26 25 25 25 25 25 23 23 23 24 25 25 24 24 24 24 23 23 22 22 21 20 19 18 16 14 12 10 8 6 3 3 8 11 6 2 2
28 33 43 47 48 47 46 44 42 41 39 38 37 37 36 37 35 32 31 31 32 28 26 21 20 25 26 26 28 30 29 27 21 15 10 8 10 14 18 20 22 23 23 23 22 23 24 26 27 26 26 26 26 25 24 24 24 25 25 25 25 24 24 25 24 24 24 24 23 21 22 22 21 19 16 15 13 11 8 4 3 7 9 6 2
30 38 47 50 50 49 47 46 45 43 41 40 39 39 38 38 36 34 31 32 32 30 28 24 27 27 24 27 30 32 33 29 24 18 13 9 9 12 16 20 22 24 24 24 23 23 25 26 27 27 27 26 26 25 24 24 24 25 25 25 25 24 25 24 25 24 25 26 26 25 24 24 23 22 20 18 17 15 12 9 5 4 7 9 6
39 45 50 51 51 50 48 47 46 46 44 43 42 41 40 40 38 35 32 33 33 33 31 27 32 29 22 27 31 35 35 32 27 21 15 11 9 10 15 19 22 23 24 24 23 23 25 26 27 27 27 27 27 25 25 24 24 25 25 25 23 24 24 24 25 24 27 29 30 30 27 25 25 24 23 21 19 18 16 14 10 6 4 6 9
47 49 50 51 52 51 50 49 49 48 47 46 45 43 42 42 39 37 34 34 35 35 34 31 30 26 23 27 32 36 38 36 31 24 18 13 11 9 12 18 21 23 24 24 23 23 25 27 26 28 28 27 28 26 25 25 25 25 25 24 22 23 23 24 24 26 31 29 33 35 27 25 25 25 24 24 22 20 18 16 14 11 7 4 5
51 55 52 51 53 53 52 51 51 50 50 49 48 46 44 43 41 39 35 36 37 37 37 34 31 27 24 27 34 39 40 39 36 31 22 16 12 10 11 15 21 23 24 24 24 23 24 27 27 27 28 28 28 27 26 25 25 25 25 24 22 21 22 24 23 26 31 31 40 39 28 25 24 25 25 25 24 23 21 19 17 14 12 8 5
58 57 52 53 53 54 54 53 54 52 53 52 51 49 46 45 42 39 37 37 39 40 39 35 33 30 27 28 35 41 42 40 39 36 28 21 15 12 11 13 18 23 24 24 24 24 23 25 28 28 28 28 29 28 27 27 26 25 25 25 23 22 20 22 22 25 31 35 41 38 32 26 22 24 24 24 25 24 24 22 20 17 15 12 10
56 49 47 53 54 55 55 54 55 55 56 55 54 52 48 46 44 40 39 40 42 43 40 37 37 35 32 32 39 47 46 43 42 40 36 30 21 14 12 12 15 20 23 25 24 24 24 24 27 30 29 28 29 29 28 27 27 26 26 26 25 23 21 22 22 24 30 30 27 25 26 23 20 22 22 23 24 24 25 24 23 21 18 15 13
50 43 41 46 52 54 54 55 57 57 58 58 56 53 50 47 45 42 41 44 46 44 40 39 40 38 36 41 51 56 50 46 50 48 44 42 36 26 17 13 12 17 21 24 25 25 24 24 25 28 31 30 29 29 29 28 28 27 27 27 27 25 22 22 24 28 31 24 22 25 22 21 21 21 21 22 22 23 24 25 25 24 22 19 16
47 44 36 36 47 52 55 58 59 61 60 60 58 55 51 48 46 46 47 48 47 43 40 40 42 40 39 55 66 61 53 47 52 55 52 50 48 44 34 23 14 14 18 22 24 25 25 24 24 25 29 32 30 29 29 29 28 28 28 27 28 27 24 22 24 31 34 24 24 30 24 21 22 21 21 20 20 22 23 24 25 25 25 23 20
43 46 30 27 39 47 56 60 62 64 63 63 61 57 53 52 53 54 54 50 47 42 41 41 43 38 39 65 70 59 58 50 52 59 59 57 54 51 47 40 27 16 14 18 22 24 25 25 25 23 25 30 32 30 29 30 29 29 29 29 28 28 27 24 25 31 32 26 25 27 23 22 22 21 21 20 20 20 21 22 23 25 25 25 24
46 50 36 30 35 45 58 65 69 68 68 67 64 61 57 57 59 65 64 53 47 42 41 39 40 37 40 60 58 52 60 53 52 56 58 60 58 52 46 46 42 30 17 14 19 23 25 25 25 25 23 25 30 32 30 30 30 30 29 29 29 29 29 25 28 33 28 25 27 25 22 22 22 21 22 21 21 20 20 20 21 24 24 25 25
47 49 43 41 43 51 62 70 74 73 74 72 68 65 59 59 66 76 75 57 47 40 37 39 38 36 45 54 44 45 53 47 50 53 54 57 58 54 49 46 43 40 30 17 15 19 25 26 25 26 25 23 25 29 31 31 29 30 30 30 29 28 30 27 30 35 29 25 27 26 23 22 22 22 21 21 21 21 20 20 20 21 23 24 25
51 52 50 56 59 59 64 72 77 78 78 74 72 65 59 68 76 83 81 59 45 38 34 39 40 40 51 52 42 47 50 48 51 51 51 52 55 54 52 48 41 41 40 33 21 15 20 25 26 25 26 25 24 25 28 31 31 30 30 30 30 29 30 28 32 38 34 29 28 26 23 22 23 22 21 21 21 21 20 20 20 20 21 22 24
54 56 55 61 66 67 69 76 82 83 80 76 72 60 64 79 78 83 81 56 41 38 36 39 44 49 51 47 45 51 54 54 52 50 49 48 48 47 45 43 42 40 42 47 41 27 18 18 24 26 25 25 25 25 24 26 29 31 31 30 29 30 30 28 33 41 38 33 34 31 24 23 23 22 22 22 21 21 21 20 20 20 20 20 22
57 55 53 60 67 71 73 81 86 84 83 78 70 63 73 83 84 85 69 48 42 43 44 45 50 53 50 47 52 56 57 56 51 49 47 41 39 38 41 41 43 42 42 50 54 50 36 21 17 20 26 26 26 25 25 25 25 27 29 30 30 28 30 30 31 40 42 36 35 31 25 24 24 23 23 22 22 22 21 21 20 20 20 20 20
51 46 48 59 71 77 80 87 84 77 79 78 73 74 81 84 87 79 56 48 50 49 50 50 52 53 52 58 65 63 59 55 50 46 40 37 39 39 43 45 46 45 44 48 52 58 59 48 32 21 20 22 26 26 25 25 24 25 25 27 29 29 29 28 31 42 46 40 34 30 27 26 25 25 24 23 23 23 22 22 22 21 21 20 20
44 46 55 65 75 82 85 82 72 69 74 80 79 80 82 78 73 61 54 59 55 53 54 51 51 51 58 71 74 64 56 52 48 47 45 44 47 46 48 48 49 49 47 48 49 51 57 62 60 48 35 25 22 24 27 27 25 25 24 25 25 26 29 29 36 44 45 42 35 31 30 27 25 25 25 25 24 24 23 23 23 22 22 20 20
46 55 63 70 77 83 81 67 62 69 76 81 79 76 76 69 62 55 58 61 56 56 55 51 49 51 63 75 71 58 54 54 51 57 60 58 56 51 50 50 51 53 51 51 50 49 49 51 55 57 57 48 35 25 23 25 27 26 24 25 24 24 25 28 36 40 39 40 36 33 32 27 26 26 24 24 25 25 25 23 23 22 22 22 21
50 61 62 65 73 82 81 64 61 71 74 75 71 68 66 64 62 57 60 60 57 56 52 52 50 52 65 72 68 58 60 61 58 70 70 65 63 55 52 52 52 53 54 55 55 55 54 52 51 48 50 54 54 46 32 24 24 27 27 26 25 25 25 29 34 36 38 38 34 34 32 28 26 26 25 24 23 24 26 25 23 22 22 22 22
53 66 66 66 72 80 81 72 71 75 70 66 63 65 65 68 66 58 60 60 59 57 53 51 50 57 67 70 66 58 64 65 61 69 67 62 62 55 53 52 52 53 53 55 56 56 55 55 56 53 49 46 48 53 49 36 26 24 27 27 26 28 33 37 36 37 42 38 31 32 30 28 27 25 24 24 23 23 24 25 24 22 22 22 22
50 59 61 63 70 71 72 73 77 78 74 67 65 70 69 71 69 62 63 61 60 59 56 53 57 69 71 67 62 57 64 65 61 65 63 58 57 53 52 51 52 53 54 56 56 56 55 55 54 54 55 51 48 52 54 48 38 29 27 26 28 34 40 43 41 40 45 40 32 31 29 27 26 23 23 23 23 23 22 23 23 22 22 22 22
46 53 55 62 69 67 66 70 73 73 73 72 70 72 71 73 71 66 66 63 61 62 62 59 62 70 67 65 65 63 65 66 65 67 62 55 54 54 53 54 53 53 55 57 58 57 56 58 58 57 56 58 63 66 62 53 47 43 38 34 33 39 43 45 47 47 49 47 39 32 28 28 26 24 23 22 22 23 23 22 22 22 22 22 22
49 55 60 68 74 77 81 74 69 70 69 70 71 69 72 75 72 67 67 63 61 62 64 64 66 69 66 66 68 65 61 60 57 59 62 59 59 58 55 56 55 56 57 54 59 60 58 61 65 66 64 64 67 69 69 62 56 53 47 43 43 43 43 45 49 52 54 51 45 38 31 29 28 26 24 22 23 22 23 23 22 23 22 23 22
55 65 74 80 81 85 88 73 69 79 74 68 73 74 72 73 68 65 65 63 64 67 68 69 69 68 64 61 64 63 58 57 53 54 63 64 62 61 62 64 61 62 62 59 64 65 63 70 73 72 71 71 69 70 73 71 69 67 58 51 48 44 43 47 46 50 56 51 47 45 40 36 32 29 27 23 24 23 23 23 23 23 23 23 23
61 77 80 79 80 81 82 75 77 88 81 69 76 82 73 69 66 64 67 67 70 72 69 63 61 62 59 55 61 59 52 58 60 57 62 65 65 64 64 67 68 68 68 67 70 71 71 76 78 76 76 76 73 73 74 72 71 72 68 60 52 46 44 47 44 46 55 52 45 44 45 45 39 34 30 25 23 24 23 24 23 23 23 23 23
69 82 72 64 71 76 77 76 77 82 82 76 75 80 75 69 68 66 63 62 63 60 56 55 58 64 61 57 61 50 43 53 56 56 61 65 68 68 66 67 73 73 70 71 70 73 77 79 80 77 77 78 75 72 71 72 70 68 69 64 57 50 44 45 48 51 56 54 48 45 45 47 46 42 37 29 25 24 24 24 24 24 24 24 23
65 69 61 58 67 74 75 72 70 70 77 81 75 75 75 69 71 69 54 47 49 40 42 56 55 54 55 58 61 46 39 43 43 53 57 56 60 66 70 69 74 76 73 74 70 69 73 78 80 77 77 81 79 75 71 72 72 71 69 63 57 57 58 56 57 61 63 63 60 57 52 49 49 46 41 33 26 25 25 24 25 25 25 24 24
56 58 57 61 69 73 76 74 72 68 70 76 72 69 69 65 65 67 54 39 35 26 33 57 53 47 52 53 54 43 37 40 41 47 46 51 59 61 68 68 69 76 72 71 70 64 64 68 73 73 78 85 85 80 77 78 79 79 74 61 51 53 63 66 63 70 75 75 73 68 62 55 52 50 46 36 26 24 25 25 26 26 26 25 25
56 61 59 63 71 73 78 79 75 71 69 68 66 62 59 53 43 48 52 34 28 31 38 57 54 52 60 54 48 40 38 45 47 44 45 59 65 60 67 64 64 72 67 68 69 62 59 61 64 65 69 77 82 79 77 82 85 84 79 71 60 48 52 60 65 75 78 75 75 72 68 63 60 58 52 40 29 24 22 23 25 26 27 27 26
63 66 60 64 74 73 77 86 80 69 67 64 61 55 47 43 33 36 51 41 42 54 55 60 58 59 64 56 45 37 38 47 50 50 54 63 61 61 73 66 62 66 63 67 67 61 63 63 62 64 67 68 71 75 76 80 83 83 83 81 76 65 59 60 63 70 71 70 74 74 72 71 67 59 51 43 34 28 24 22 23 26 28 28 27
68 65 62 69 77 71 73 86 78 65 65 60 53 46 41 47 43 43 52 48 51 59 54 55 59 62 62 57 51 42 45 56 58 53 50 57 60 64 74 70 64 63 61 64 63 62 64 63 63 65 71 70 68 72 72 74 79 79 80 79 78 78 74 70 68 68 69 74 78 76 74 75 73 66 61 54 44 35 28 23 22 24 27 30 29
67 67 65 70 72 67 71 79 71 62 58 49 41 33 35 49 54 53 51 45 46 48 42 43 49 55 60 64 56 44 51 60 56 51 45 50 61 64 69 71 69 66 62 61 60 61 61 62 64 64 68 68 67 70 69 75 84 82 79 77 74 76 77 76 77 75 75 79 79 75 76 80 79 76 75 70 59 46 35 27 24 23 24 28 31
63 67 67 68 66 66 71 74 73 69 58 48 42 31 32 47 55 54 46 39 44 45 40 42 49 58 64 64 53 47 56 52 40 49 53 51 59 63 64 69 70 68 64 62 62 61 59 60 63 65 66 62 62 67 68 72 83 86 80 75 73 72 71 71 74 76 77 81 82 79 80 81 79 79 79 75 66 54 43 35 28 23 24 27 29
63 68 69 65 63 69 72 72 76 73 66 61 48 36 38 47 48 44 37 36 43 45 45 50 55 58 58 50 39 39 46 40 33 44 56 57 57 56 57 60 67 70 68 65 60 55 57 59 62 64 63 61 61 65 71 73 78 81 76 76 77 74 73 69 69 73 74 78 82 83 82 79 79 83 82 74 66 61 59 54 41 28 24 25 27
67 72 70 62 63 77 76 70 74 67 65 61 42 36 42 45 44 37 32 38 46 49 53 57 59 56 51 41 28 23 23 24 31 40 49 54 50 48 53 56 65 73 71 66 58 49 54 61 64 64 59 63 67 68 75 77 78 78 76 78 76 73 75 72 69 71 72 75 80 85 84 84 85 85 83 76 69 67 65 64 57 43 33 28 27
72 73 69 61 64 81 76 65 68 62 54 45 32 36 43 39 40 41 42 48 50 52 54 54 54 46 37 33 26 28 29 18 20 35 43 46 42 42 52 58 66 69 63 63 60 52 56 58 57 59 56 61 70 74 76 73 75 80 78 77 73 72 76 73 71 70 68 68 74 82 86 90 93 88 84 79 75 73 68 66 63 56 49 41 33
73 74 72 66 68 78 72 62 61 55 46 35 29 41 49 43 43 49 52 48 43 50 50 40 35 25 15 16 16 26 38 24 16 29 37 35 32 38 52 60 64 62 55 61 66 61 60 56 53 59 59 61 69 74 75 71 73 77 75 75 71 70 73 72 73 71 66 67 70 76 80 85 87 82 80 79 77 76 77 78 74 65 60 55 48
73 74 75 72 71 70 67 67 61 51 43 34 35 49 59 56 51 51 50 41 34 40 38 24 20 16 10 12 10 10 19 19 17 27 35 35 36 45 56 57 55 55 57 66 72 64 55 50 56 65 64 65 69 69 69 70 71 68 67 72 71 68 70 69 70 72 71 72 72 70 75 81 80 76 76 78 79 76 77 83 84 80 72 64 58
74 73 76 75 71 63 61 64 59 52 43 33 37 53 63 59 46 39 40 36 28 26 24 18 17 16 13 12 13 11 10 12 15 19 26 32 40 50 54 52 53 53 54 59 63 58 53 51 58 67 67 64 65 66 70 70 68 68 68 72 72 70 74 72 69 71 71 74 77 74 77 82 80 78 78 81 83 80 78 79 81 84 81 73 70
78 72 75 75 69 61 58 56 54 51 42 36 41 53 64 58 40 33 36 34 30 26 22 21 19 17 16 14 13 14 14 14 11 8 10 14 22 31 35 38 42 41 41 46 49 50 55 57 57 66 68 59 58 66 72 68 64 71 75 74 71 72 78 78 72 72 71 73 79 79 78 80 82 84 85 87 89 87 86 85 83 83 82 80 80
83 73 68 68 66 64 62 59 58 53 45 47 53 61 66 52 36 36 38 34 32 29 24 22 22 19 18 17 13 13 15 13 9 8 7 5 7 13 16 18 21 23 31 42 48 49 53 55 55 60 61 55 59 70 69 61 59 65 71 73 71 70 74 76 73 74 73 73 81 83 79 78 83 87 86 84 88 90 89 88 86 84 83 80 76
81 73 67 68 69 67 67 66 63 58 54 54 57 64 61 44 37 39 36 34 33 31 28 26 25 23 21 19 16 16 15 11 9 9 7 5 6 7 6 8 10 11 25 45 53 51 47 45 49 51 50 51 59 64 60 54 54 54 57 65 69 67 70 76 75 71 69 70 76 79 79 80 81 85 87 85 83 85 85 88 89 84 84 81 75
81 75 73 76 72 68 69 67 61 58 56 51 52 56 49 38 39 38 36 38 37 35 34 31 28 27 25 22 19 17 15 11 8 7 6 5 5 5 4 10 16 12 20 39 45 44 39 36 47 53 51 54 53 51 50 49 49 46 45 50 58 60 63 68 71 69 68 68 70 71 76 83 81 79 83 83 80 81 83 86 86 82 84 85 82
72 69 74 82 77 72 70 66 57 53 54 52 48 46 39 36 38 38 39 40 38 39 38 36 34 32 29 26 23 20 17 14 11 7 6 5 5 5 5 10 18 14 16 32 39 39 35 32 42 52 56 58 51 48 50 47 48 48 44 43 48 51 50 49 54 61 65 66 68 67 69 78 81 78 77 78 78 79 83 84 82 83 87 86 82
59 66 78 87 83 75 70 67 58 48 52 56 48 40 37 37 37 38 40 39 39 41 40 39 38 36 34 28 26 25 24 20 15 10 7 6 5 6 6 6 10 9 13 30 35 30 33 31 24 31 49 50 42 50 57 49 50 58 54 44 40 42 43 41 40 47 58 64 67 67 70 76 81 80 80 81 78 77 80 81 83 86 84 79 78
51 61 72 78 76 70 65 68 67 54 52 55 46 37 37 37 37 38 39 39 40 40 41 41 40 39 35 29 30 33 32 27 20 13 8 7 6 5 6 6 8 8 9 17 19 16 28 31 14 15 34 37 33 42 50 46 48 61 65 54 46 46 48 51 47 45 53 63 67 71 77 79 79 84 87 86 82 79 79 78 81 85 81 76 78
43 46 53 58 60 62 60 62 64 56 50 53 47 38 37 37 37 39 39 40 41 41 42 42 42 40 33 32 39 41 40 35 25 16 10 7 7 5 5 6 7 8 8 10 11 10 14 17 10 9 17 27 33 33 35 40 43 51 57 54 56 60 62 69 70 63 60 65 69 74 80 81 81 88 91 87 83 79 78 79 82 84 81 80 83
43 41 45 48 50 57 63 61 56 47 43 53 56 49 45 42 39 39 41 40 41 42 43 43 43 39 36 39 45 46 47 42 29 18 14 10 8 6 6 6 6 7 8 9 10 11 11 10 11 10 10 18 26 21 19 26 30 35 39 43 53 60 64 70 74 73 71 70 69 71 79 83 81 85 90 89 87 84 84 84 86 86 85 86 87
Wind_Speed
11 12 11 13 14 14 13 13 13 12 13 12 12 11 10 10 10 10 10 10 9 8 9 9 9 9 8 9 9 8 8 9 10 11 13 14 15 17 18 17 15 14 14 14 13 13 13 13 12 12 12 12 12 12 12 13 14 15 15 15 15 16 16 17 18 19 20 20 21 21 21 22 23 24 25 27 27 26 24 21 21 22 21 19 18
11 12 12 13 14 13 13 12 12 12 13 12 12 11 11 11 11 11 11 10 9 9 8 9 9 10 9 8 8 7 8 9 9 10 12 13 15 16 18 17 16 15 14 14 14 14 14 13 12 11 12 12 12 12 12 13 14 14 15 15 15 15 16 17 18 19 20 20 22 22 22 22 23 23 24 25 27 28 28 25 23 23 23 21 19
12 13 12 13 13 12 12 12 12 12 13 12 13 12 11 11 11 11 11 11 10 9 9 8 9 9 9 8 7 6 7 8 9 10 11 12 14 16 17 17 17 15 14 13 14 14 14 14 12 12 12 13 12 12 12 12 13 14 14 14 15 15 16 17 18 19 20 21 22 22 23 23 23 24 24 25 26 27 29 29 26 24 23 23 22
12 13 12 12 12 11 11 11 11 12 13 13 13 12 11 11 11 12 12 11 10 9 9 8 9 9 9 7 6 6 6 7 9 10 10 11 13 15 17 17 17 16 14 14 14 15 14 14 14 12 13 13 12 12 11 12 12 13 14 14 15 15 16 16 17 18 19 20 20 22 24 24 24 24 24 25 25 27 28 29 29 27 24 24 24
12 12 12 11 11 11 11 11 12 12 13 13 13 12 12 12 11 12 12 12 10 9 8 7 8 9 8 7 6 6 6 7 9 10 9 10 12 15 16 17 17 17 16 15 15 15 15 15 15 14 13 14 13 12 11 11 12 12 13 13 14 14 15 15 16 17 18 18 19 23 24 23 23 24 24 24 25 26 27 28 29 29 27 25 24
9 11 12 11 11 11 11 11 12 13 14 13 13 13 12 12 12 12 12 12 10 9 8 7 8 8 7 7 6 6 7 7 9 10 10 9 11 13 16 17 18 18 17 16 16 16 15 15 15 15 15 14 13 12 11 10 11 12 12 12 13 13 13 14 15 16 16 16 19 22 22 21 22 23 23 24 24 25 26 27 27 28 29 28 25
10 10 11 11 11 10 11 11 12 13 13 13 14 14 13 13 13 13 12 11 10 9 8 7 7 7 7 7 7 8 8 8 8 9 10 10 10 12 14 17 18 18 18 17 16 16 16 15 15 16 16 15 14 12 11 10 11 11 12 12 12 12 12 12 13 14 13 15 19 20 19 20 21 21 22 23 24 25 25 26 27 27 28 29 28
10 10 11 11 11 10 11 11 13 13 14 14 15 15 15 14 13 13 12 12 10 9 8 7 7 7 8 8 8 8 8 7 7 7 9 10 10 11 13 15 17 18 18 17 16 16 17 16 15 16 17 16 15 13 11 10 10 11 11 11 11 11 11 11 12 12 12 15 17 16 17 18 19 20 20 22 23 24 25 25 26 26 27 28 29
10 11 11 10 10 11 11 12 13 14 14 15 16 16 15 14 14 13 12 11 10 8 7 7 7 7 8 9 10 9 7 7 7 7 7 9 9 10 11 13 15 17 18 18 17 16 17 17 16 16 17 17 16 14 12 11 10 10 10 10 10 10 10 10 10 10 11 14 14 13 15 16 18 19 19 20 21 22 23 24 25 25 26 27 27
10 10 10 9 10 11 12 13 14 15 16 16 16 16 15 14 14 13 12 11 9 6 5 6 7 8 9 10 10 8 7 7 7 7 7 7 8 9 10 11 13 15 17 17 17 16 16 17 17 17 17 18 17 16 14 12 11 10 10 9 9 10 9 10 9 9 11 12 12 12 13 14 16 17 18 19 20 21 22 23 24 24 25 25 26
9 9 9 9 10 11 13 14 15 16 16 17 17 16 15 14 14 13 12 10 7 5 5 6 6 7 9 10 10 8 7 7 7 7 7 7 8 8 8 10 11 13 15 17 17 17 16 17 17 17 17 17 18 17 15 14 12 11 10 9 9 9 9 9 8 9 11 11 10 11 12 13 14 15 16 17 18 19 20 21 22 23 23 24 24
9 9 9 10 11 12 13 15 16 16 17 17 16 16 15 15 14 13 11 9 7 6 6 6 7 7 9 10 9 8 8 8 7 7 6 6 7 7 7 8 10 12 14 16 17 18 17 17 17 17 17 17 18 18 17 15 13 12 11 10 9 9 8 8 7 7 11 10 9 9 10 11 11 13 13 14 16 17 18 19 20 21 22 22 23
9 10 10 10 12 13 15 16 17 17 17 17 16 16 15 15 14 12 10 8 7 7 7 7 7 8 9 10 9 8 9 9 8 7 6 5 5 6 6 7 8 10 13 15 17 18 18 18 17 18 18 18 18 19 18 17 15 13 12 11 10 9 9 9 7 6 8 7 7 7 8 9 10 10 11 12 13 14 16 17 18 19 20 21 21
10 11 10 11 12 14 16 16 17 17 17 17 16 16 15 14 12 10 9 8 8 8 8 8 9 9 9 10 9 10 10 10 9 8 6 5 4 4 5 6 8 9 11 13 15 17 18 18 18 18 19 20 19 19 19 18 17 16 14 13 11 10 9 9 8 6 6 6 6 5 6 7 8 8 9 10 11 12 13 14 15 16 18 18 19
11 11 11 12 13 14 16 17 17 18 17 17 17 16 15 12 11 9 9 8 8 9 9 9 9 9 9 10 11 12 12 10 9 8 7 6 5 4 4 5 6 8 10 12 13 15 16 17 18 18 19 20 20 20 20 19 19 18 16 14 13 12 10 10 9 7 7 6 5 5 4 4 5 6 6 7 8 10 11 12 13 14 15 16 17
10 10 11 12 13 15 16 18 18 18 18 18 17 16 14 11 10 10 10 9 9 9 10 10 10 10 11 12 12 12 12 10 9 9 8 7 6 5 5 5 5 7 9 10 11 13 15 16 17 17 18 19 20 20 21 20 20 19 18 17 15 14 12 12 11 9 9 8 7 6 5 3 2 3 4 5 6 7 9 10 11 12 13 14 15
10 10 12 14 15 17 18 18 18 18 19 18 18 16 14 13 13 13 12 10 9 10 11 11 11 11 12 11 11 11 10 9 9 9 9 9 8 7 7 5 5 6 8 9 10 11 12 14 15 16 17 18 19 20 21 21 21 20 19 19 17 16 15 14 13 11 10 9 9 8 6 5 4 2 1 2 3 5 6 8 9 10 11 11 13
12 12 12 15 17 18 18 18 18 18 18 18 18 16 15 15 15 15 12 10 11 12 12 12 12 11 11 10 11 12 11 10 9 9 10 9 8 7 6 5 5 6 8 9 9 10 10 12 13 15 16 17 18 19 21 21 22 22 21 20 19 18 17 16 16 13 11 11 12 10 8 8 7 5 4 2 1 2 4 5 6 7 8 9 10
13 13 14 17 18 18 17 18 19 18 18 19 19 17 17 17 17 16 14 13 13 14 14 13 12 11 10 11 12 12 10 9 9 9 9 8 7 6 5 4 5 6 7 8 9 10 9 10 11 13 15 16 18 19 20 21 22 22 22 21 21 20 20 19 18 15 13 15 15 12 11 10 9 8 7 5 4 3 2 3 4 5 6 7 7
15 14 15 18 18 18 18 19 20 19 19 20 19 17 18 18 17 16 16 16 15 15 14 12 11 11 12 13 11 9 7 8 8 7 7 7 6 5 4 4 4 5 6 7 8 9 9 10 11 12 14 15 17 19 20 21 22 22 22 22 22 22 21 21 19 17 17 18 17 15 13 13 12 11 9 9 7 6 5 4 3 3 4 5 5
15 15 17 19 18 19 20 20 20 20 21 20 18 17 19 18 15 16 17 17 17 16 14 12 11 12 14 12 9 7 7 7 7 7 8 7 6 5 4 4 5 5 6 7 8 8 9 9 10 12 13 15 17 18 19 21 21 22 22 22 23 23 23 22 21 21 21 20 18 16 15 15 14 13 12 11 10 9 8 7 5 4 3 3 4
15 16 19 20 19 20 20 18 19 21 22 21 18 18 19 16 13 14 15 16 16 15 13 12 13 15 14 10 9 9 8 7 8 9 8 7 6 5 5 6 6 7 7 8 8 9 9 9 10 11 12 14 16 17 19 20 21 21 21 22 22 23 24 23 22 22 22 22 21 19 19 18 17 16 15 14 13 12 11 10 8 7 5 4 4
15 17 18 18 19 19 17 14 17 21 20 18 18 18 18 16 14 14 14 14 14 13 13 13 15 17 14 10 9 8 8 8 10 9 7 6 7 7 7 7 8 8 8 9 9 9 9 9 9 10 10 11 13 15 18 20 21 21 21 21 22 22 22 23 22 22 24 24 23 22 22 21 20 19 18 17 15 14 13 13 12 10 8 6 5
14 17 17 18 18 18 16 14 18 19 16 16 18 17 17 17 16 15 15 15 15 15 15 15 16 16 13 10 11 10 10 10 11 9 7 7 8 8 8 9 9 9 9 9 8 8 8 8 9 9 9 9 10 12 14 18 21 21 21 22 22 22 21 22 22 23 26 24 23 24 23 22 22 21 20 19 18 16 16 15 14 13 11 9 8
15 16 17 19 20 21 19 19 21 18 17 17 18 17 16 17 16 15 15 16 16 15 15 15 17 17 12 10 10 10 10 9 9 7 6 8 9 9 10 10 9 8 8 8 8 8 8 8 8 8 9 9 9 10 10 13 17 19 21 22 22 22 22 22 22 24 26 22 22 25 24 23 23 23 22 21 20 18 17 17 16 15 14 12 10
14 15 17 18 20 21 19 21 21 18 19 17 16 16 16 15 14 15 15 15 15 14 16 18 19 16 11 10 10 8 8 7 8 8 8 9 9 10 10 10 9 9 9 9 9 9 9 9 8 9 9 9 9 9 10 11 13 16 20 22 22 22 22 23 23 24 26 22 22 24 24 24 24 24 23 22 22 20 18 18 18 17 16 14 12
13 12 14 15 18 20 19 22 20 18 20 18 16 16 17 15 14 15 15 15 16 17 18 18 14 9 7 8 6 4 5 6 8 10 9 9 8 8 9 8 9 9 10 10 10 11 11 9 8 8 8 8 8 8 9 10 11 13 16 19 21 24 23 24 25 25 25 22 22 23 23 24 24 24 24 23 23 22 20 19 18 18 17 17 15
12 11 13 15 17 17 21 23 19 17 19 18 17 16 18 18 16 17 16 16 16 14 11 8 5 4 6 6 3 3 6 6 7 8 8 9 8 7 8 8 8 9 11 10 11 12 11 10 10 10 9 8 8 7 7 8 9 10 12 15 18 22 24 25 26 26 25 21 21 23 22 23 23 24 24 24 24 23 22 20 19 18 18 18 17
11 13 15 14 14 16 23 24 20 19 18 17 16 15 17 19 19 18 16 14 12 8 5 3 3 4 6 6 4 4 8 8 8 8 8 9 7 6 8 10 9 10 11 10 9 9 9 10 11 10 9 8 8 7 7 7 8 9 11 13 15 18 20 23 23 23 24 20 20 23 22 22 23 24 24 24 24 23 23 22 20 19 18 19 19
12 14 13 12 14 19 25 25 21 21 19 17 16 13 13 17 20 17 13 11 9 6 5 5 6 6 7 8 3 3 9 10 8 8 9 9 8 7 8 9 9 9 9 8 8 10 11 12 12 12 12 10 9 8 7 7 7 8 9 11 13 14 16 19 20 20 22 17 16 21 21 22 22 23 24 24 24 23 24 23 22 21 20 20 20
11 12 12 12 16 21 24 24 21 20 19 16 14 12 11 12 13 12 9 7 7 6 6 5 6 6 7 7 2 5 10 9 8 9 8 8 8 9 9 8 7 8 9 9 11 12 11 11 11 11 10 11 11 9 8 7 7 7 8 9 11 12 13 16 17 18 19 15 15 20 20 21 21 21 22 23 24 24 24 24 23 23 21 21 21
12 12 13 14 18 21 23 23 22 21 19 16 14 12 11 9 7 7 6 4 6 5 3 3 5 4 5 4 3 7 9 9 9 9 8 8 8 9 10 7 7 9 10 10 12 11 7 6 7 7 8 9 10 10 10 9 7 6 6 7 8 10 11 13 14 15 18 15 14 16 17 19 20 20 21 22 23 24 25 25 24 24 23 22 21
14 15 15 17 20 23 24 24 22 20 18 16 15 13 12 9 8 6 4 5 5 3 2 2 3 3 2 2 5 7 7 9 10 9 9 9 8 9 9 7 7 9 9 9 10 6 4 5 5 6 7 9 9 9 10 10 9 7 7 6 7 8 9 11 12 13 16 15 13 14 16 17 17 18 19 21 22 23 24 25 24 23 23 22 22
16 18 18 19 23 25 26 23 21 19 18 16 14 13 12 11 8 7 5 5 5 3 3 1 2 2 2 2 5 6 7 8 10 10 10 8 8 9 9 7 7 7 7 8 7 5 4 4 5 6 6 8 9 9 9 10 11 10 8 7 7 8 8 10 11 10 13 13 12 14 15 15 15 18 18 19 20 21 22 24 23 22 22 22 22
19 20 20 22 24 26 26 22 20 22 22 20 18 15 14 12 9 8 6 6 5 3 2 1 1 2 2 3 6 7 7 8 10 11 11 9 8 9 9 7 6 6 8 8 8 6 4 4 5 6 7 8 9 9 10 10 9 9 9 9 9 9 9 9 10 10 12 13 13 13 14 15 16 18 17 17 17 17 19 21 22 22 21 22 22
22 22 24 23 23 25 24 20 20 23 25 23 21 18 16 14 10 8 7 7 5 3 3 1 0 1 2 4 6 6 6 9 10 9 11 10 9 9 8 7 7 8 9 9 8 6 4 5 6 7 8 8 8 9 10 12 9 7 8 9 9 9 9 9 10 10 11 12 13 13 15 16 17 17 16 15 15 15 16 19 21 21 21 21 21
24 25 26 23 23 26 23 19 20 21 21 19 20 18 15 14 11 9 8 7 6 4 3 2 1 1 2 3 4 5 7 9 9 9 10 11 10 10 9 8 8 9 9 9 8 6 5 5 8 9 9 8 8 9 10 11 10 7 7 8 9 9 9 9 9 10 11 12 14 15 16 16 17 17 16 15 14 14 15 16 19 20 20 20 20
26 28 25 21 24 28 23 21 20 16 14 14 18 18 15 14 11 10 9 8 7 5 4 3 3 3 3 3 3 3 5 7 8 8 8 10 11 11 10 9 8 9 9 9 9 8 6 7 9 10 9 8 8 9 9 9 9 9 9 9 9 8 9 9 9 10 11 12 13 15 16 15 15 16 13 12 12 13 15 16 18 20 20 20 20
27 29 24 22 26 26 23 22 19 13 13 14 18 17 14 14 12 11 9 7 7 5 5 4 4 5 5 5 5 4 4 5 6 7 8 10 12 10 10 10 9 9 9 9 9 8 7 9 11 10 8 9 10 9 9 9 10 9 8 8 8 8 9 9 9 10 10 12 13 14 16 16 12 9 6 7 10 13 15 16 18 19 20 20 20
27 26 22 25 29 24 21 22 18 14 16 17 17 17 14 13 12 10 9 7 7 6 5 5 6 6 6 6 7 6 5 4 4 6 8 9 11 10 10 10 10 10 10 9 10 9 8 9 11 10 9 9 10 10 10 11 10 9 8 9 9 9 10 10 9 9 9 11 14 15 16 16 10 7 7 7 9 12 13 14 15 18 20 20 20
27 24 21 27 30 24 20 22 21 18 17 18 18 18 15 13 11 10 9 7 7 7 6 6 6 5 6 7 7 7 6 4 2 4 6 7 9 10 10 10 9 10 11 10 10 10 9 9 10 10 9 9 10 9 10 10 9 9 8 9 10 10 11 10 9 9 10 11 14 14 16 16 10 8 10 8 8 11 12 13 15 17 20 21 20
24 22 24 27 26 21 17 17 20 20 18 19 19 17 15 12 11 10 9 8 7 7 6 5 5 5 6 6 6 6 6 5 3 1 3 5 7 8 9 10 8 10 12 11 12 11 10 10 10 9 9 10 10 9 10 11 9 8 8 8 10 10 11 11 11 12 11 11 14 13 14 15 9 10 13 9 8 11 12 14 16 18 20 19 19
22 21 24 23 19 16 13 12 15 17 18 18 18 16 14 11 11 10 9 7 7 6 5 4 4 5 5 5 6 6 6 5 4 3 2 3 4 6 8 8 9 11 12 11 12 11 11 12 11 10 9 10 11 9 11 11 9 8 8 9 11 10 11 11 11 12 11 12 14 13 12 12 8 9 10 8 9 9 10 12 14 17 19 17 17
20 18 19 17 16 15 15 15 15 17 18 17 18 16 14 12 11 10 8 7 6 5 3 3 4 4 4 5 6 6 7 6 5 4 3 3 3 4 6 6 7 8 9 9 9 10 10 11 13 13 12 12 11 9 11 12 11 10 10 10 10 10 11 10 10 11 10 11 13 13 12 11 9 8 8 7 8 9 10 10 10 15 17 15 15
19 15 17 16 15 16 16 17 18 20 20 18 17 14 13 11 10 9 7 6 5 4 2 2 3 3 4 5 6 7 7 7 6 6 4 3 3 3 4 5 5 6 5 5 6 8 10 10 12 13 13 14 12 11 12 14 13 12 12 12 10 11 11 9 9 11 10 10 11 11 12 10 8 8 8 7 6 8 9 8 9 12 13 11 12
21 17 19 17 16 15 13 12 16 21 21 19 16 12 11 11 9 8 7 6 5 4 3 1 1 3 4 5 6 7 7 7 7 6 5 3 3 3 3 3 4 5 4 4 6 7 8 9 9 10 11 12 13 13 14 14 14 12 13 13 12 12 11 9 9 10 9 10 10 9 10 9 7 7 8 7 6 7 6 9 11 10 9 9 9
20 17 18 19 18 16 12 12 17 21 21 20 17 13 11 11 9 8 7 6 5 4 3 1 1 2 4 4 6 6 7 8 7 6 5 3 2 2 2 2 3 3 3 4 5 5 5 7 8 8 9 10 10 10 11 12 12 11 11 12 12 12 12 11 10 10 9 9 9 8 9 10 8 6 7 6 6 6 6 8 10 9 8 8 9
18 19 20 21 22 21 18 18 21 23 22 21 19 14 12 10 9 9 7 6 5 4 2 1 1 2 3 4 5 7 8 8 8 7 5 4 2 1 1 1 2 2 3 3 4 4 4 5 6 7 7 8 8 7 8 10 9 8 9 9 10 10 10 11 10 10 10 8 9 9 8 8 7 5 6 5 5 6 5 6 7 8 9 9 9
16 19 21 20 18 17 16 15 17 21 21 19 18 16 13 11 11 11 10 8 6 4 2 1 1 2 3 4 6 8 9 9 9 8 6 4 3 2 1 1 1 2 2 3 3 3 2 3 4 5 5 5 6 7 7 7 6 7 6 6 7 7 8 8 8 9 9 8 8 9 7 6 5 3 4 5 5 5 6 6 7 8 8 8 9
17 17 19 19 15 13 13 12 12 15 17 17 18 17 15 14 14 13 12 10 8 6 3 1 1 2 2 4 7 9 11 11 9 8 7 5 4 3 1 0 1 2 2 2 2 2 1 2 3 4 4 4 4 5 6 6 6 5 4 3 4 5 5 4 4 5 6 6 6 5 5 3 2 2 3 5 6 6 7 7 7 8 8 8 8
21 20 18 18 18 17 17 16 15 17 19 19 20 19 17 17 16 15 13 11 9 7 4 2 1 2 2 4 7 10 12 12 11 9 7 5 4 3 2 1 1 1 2 2 2 2 2 2 2 3 3 3 3 4 4 5 5 5 4 4 4 4 3 2 1 1 2 4 3 3 3 2 2 3 3 4 6 6 7 7 6 7 7 6 6
Wind_Direction
203 208 202 196 200 202 209 213 218 218 219 220 219 217 204 197 193 187 180 176 171 165 162 164 163 162 154 139 130 123 118 114 119 126 139 150 157 164 170 174 173 169 163 156 152 148 144 139 134 128 124 119 114 111 106 100 98 95 91 87 83 80 78 76 74 73 72 73 72 70 67 65 64 63 62 61 59 58 57 58 57 56 56 57 58
192 194 195 195 200 204 210 213 218 219 221 222 223 219 209 201 194 189 182 179 175 172 169 169 170 166 154 142 136 130 124 118 123 128 139 151 159 165 171 176 176 172 166 162 156 152 149 143 137 133 129 124 120 117 111 104 102 99 94 88 84 82 80 78 76 76 74 74 74 73 70 67 65 64 62 60 59 57 56 56 57 56 57 58 60
191 189 193 197 201 207 211 215 219 220 223 225 227 221 215 206 199 192 184 183 179 178 175 174 174 167 154 144 142 134 131 127 129 134 141 151 159 167 172 176 179 176 170 167 161 157 154 147 144 139 136 131 128 124 117 111 109 104 98 92 86 84 83 81 80 78 76 75 75 75 73 69 66 65 63 61 59 57 55 55 55 57 58 59 60
201 191 191 199 203 209 213 217 221 223 225 227 228 224 218 212 204 195 188 187 183 183 180 180 178 168 156 149 149 142 141 141 138 138 143 151 160 167 174 178 180 177 172 170 165 162 159 152 149 147 143 139 135 131 123 117 115 110 104 97 90 87 85 84 83 80 79 78 78 77 74 71 68 66 65 63 61 59 57 55 55 56 57 59 61
203 191 189 197 203 209 213 217 223 225 226 229 229 226 221 217 209 199 194 190 188 188 184 182 179 169 158 157 159 155 157 157 148 141 145 152 159 167 174 179 179 180 175 172 169 165 164 158 154 153 151 146 143 137 129 124 122 117 111 103 95 90 88 88 85 83 82 80 79 76 73 72 70 68 67 65 63 61 59 57 55 55 56 59 61
193 188 184 188 199 206 212 218 223 226 228 230 230 228 223 220 213 204 197 194 194 192 189 182 180 175 165 168 171 171 172 167 155 146 149 154 161 167 173 179 181 183 181 176 173 169 168 165 159 157 158 154 150 144 137 133 130 125 118 110 101 95 93 90 89 88 84 82 79 75 73 72 71 69 68 67 65 64 62 60 57 56 56 57 60
181 182 182 184 194 203 213 220 226 228 231 231 231 229 225 221 215 208 201 198 198 197 194 185 183 181 174 179 183 184 180 169 157 150 153 157 162 168 173 180 184 185 184 180 176 172 171 171 166 161 163 161 157 153 146 143 139 134 126 116 108 102 98 95 92 89 84 81 78 75 73 72 71 70 70 69 68 66 64 62 60 57 57 57 58
178 178 183 185 193 203 215 223 229 232 234 234 232 230 225 221 217 210 204 203 203 201 195 187 183 179 181 187 191 191 185 169 157 156 157 159 162 167 173 180 187 189 187 184 181 177 175 175 173 166 167 167 164 161 156 153 150 143 135 124 116 110 106 102 95 90 87 81 78 77 75 73 72 71 70 70 69 67 66 64 62 60 58 58 57
178 180 182 187 195 203 214 223 230 234 236 235 233 230 227 222 218 213 208 208 208 207 197 187 181 177 184 190 194 192 186 174 164 164 161 159 159 163 171 178 187 192 191 189 185 182 180 179 179 174 171 172 171 169 166 163 161 155 145 135 126 118 113 109 103 102 92 81 79 79 77 74 73 71 69 69 69 68 67 67 65 62 61 59 58
177 177 177 189 199 207 216 224 230 232 234 235 233 231 228 224 220 215 212 213 214 214 203 191 183 179 184 187 190 187 180 177 172 168 157 152 154 157 164 173 184 192 194 193 190 187 185 184 184 181 177 177 177 176 175 172 170 168 157 147 137 127 121 114 112 111 94 85 83 80 79 76 73 71 69 68 68 69 68 67 66 64 63 61 60
178 175 181 195 201 212 220 226 229 231 234 234 233 230 227 224 221 217 215 217 215 213 205 196 187 181 183 183 181 178 175 176 175 165 153 144 143 147 154 165 176 188 195 195 193 191 189 188 191 188 183 183 184 183 182 181 178 177 170 161 151 141 135 124 124 116 100 93 90 84 81 76 72 71 69 68 67 67 67 67 67 66 65 64 62
178 184 193 202 205 216 223 228 230 232 234 235 234 230 226 223 220 218 217 217 210 204 198 194 189 184 182 179 176 174 177 183 184 173 161 147 138 138 144 157 168 181 192 196 196 194 192 190 193 195 191 189 190 189 188 189 186 186 182 176 168 159 152 141 144 125 105 100 96 92 85 79 73 69 67 67 66 65 66 67 67 68 66 65 63
182 193 200 206 211 220 224 228 231 233 235 235 234 230 226 223 219 217 219 216 205 200 195 190 186 184 179 177 179 178 183 190 195 190 183 164 147 142 146 156 166 177 186 195 200 199 197 192 193 197 196 195 195 195 195 196 194 194 191 188 183 177 172 162 165 140 117 116 109 102 93 85 78 69 64 64 64 65 65 66 66 67 67 66 65
190 198 209 214 218 224 228 231 233 234 234 233 232 230 227 224 220 215 218 213 202 198 192 186 182 178 173 179 187 188 192 195 201 203 199 190 169 159 159 164 169 176 183 192 199 202 202 198 196 198 198 198 198 198 200 201 200 200 198 197 196 193 188 182 183 163 148 150 137 125 108 93 85 75 65 60 59 61 63 64 64 65 66 66 66
206 208 220 223 226 230 232 235 234 234 232 231 229 227 227 224 219 211 215 211 197 193 184 177 176 172 171 183 192 192 197 199 203 207 205 204 191 181 177 176 175 178 185 190 196 202 205 203 201 203 202 201 201 202 204 206 205 206 204 202 203 204 200 202 200 178 181 188 177 167 140 115 96 82 68 60 54 54 55 60 62 62 63 65 65
218 222 229 228 230 233 234 236 235 234 232 230 227 226 223 214 208 204 212 209 190 184 175 172 174 173 178 189 192 190 195 197 200 203 207 211 205 201 198 191 185 183 187 191 196 200 203 205 204 205 207 206 205 206 208 209 209 210 210 208 208 210 209 214 215 194 195 205 207 203 186 176 142 101 75 60 52 51 48 51 56 59 61 62 64
221 227 233 233 233 232 234 235 235 234 233 231 228 225 215 204 201 203 210 203 183 175 169 173 178 180 186 190 189 187 191 194 197 197 202 210 207 205 202 196 189 185 188 192 198 200 201 204 205 206 208 210 209 209 212 212 213 213 213 213 212 214 216 220 225 213 204 213 221 213 208 217 215 203 152 56 40 45 45 44 47 53 56 59 61
226 229 234 237 233 231 232 232 233 234 236 236 231 222 211 203 200 203 204 189 175 170 169 173 177 182 187 190 189 185 184 187 193 196 201 206 205 201 196 191 188 187 188 192 197 200 201 202 205 207 208 212 212 212 215 216 216 216 216 216 216 217 219 223 229 226 216 223 227 220 221 228 229 233 237 245 305 8 29 36 38 43 46 53 56
234 239 239 238 233 231 232 231 234 238 240 239 232 217 210 208 201 197 190 177 171 168 169 171 174 179 187 195 189 180 180 189 194 200 207 206 204 199 191 187 186 187 189 193 196 199 201 201 204 207 208 211 214 215 216 218 219 219 218 218 219 220 222 225 230 229 225 229 227 223 229 234 235 239 244 250 256 281 321 4 18 28 31 38 46
242 247 247 244 240 235 234 238 244 245 241 235 227 212 209 212 201 191 178 168 167 166 168 170 175 185 196 197 186 180 191 201 200 203 214 213 211 201 190 192 186 185 188 190 194 197 201 204 206 207 209 209 212 216 217 219 220 221 221 220 221 222 224 227 230 230 230 232 228 225 232 237 241 244 245 251 254 262 275 295 325 352 6 16 24
246 246 249 249 245 237 235 243 247 244 239 232 222 209 211 213 196 187 176 165 166 166 168 176 189 202 207 197 180 190 198 204 204 204 216 217 215 207 195 201 197 193 191 189 189 191 195 201 206 209 211 211 211 213 216 220 222 223 223 223 224 224 225 227 229 231 232 233 230 228 234 239 243 246 248 251 253 257 263 272 284 297 321 342 354
252 247 249 245 241 238 233 237 242 239 234 228 219 208 206 202 187 186 178 164 166 173 178 189 207 218 219 200 182 190 190 202 214 211 215 215 216 218 210 211 209 203 197 195 192 192 196 199 204 209 212 214 213 213 214 217 220 224 224 225 226 227 227 228 230 233 235 235 233 232 235 238 241 244 248 250 251 254 257 264 270 275 286 298 314
256 250 247 242 238 240 238 236 241 237 226 217 211 202 193 185 179 186 187 177 181 193 198 204 217 221 219 203 191 195 196 208 222 224 222 222 227 228 224 221 217 212 207 205 203 202 206 209 212 215 216 217 215 213 215 216 217 220 224 225 227 228 228 229 230 233 235 233 233 235 236 238 240 242 246 248 249 252 254 258 264 268 272 275 283
256 254 256 251 242 248 252 243 240 234 217 204 198 193 190 184 179 186 195 196 198 203 207 210 218 217 205 197 195 190 197 213 225 228 224 230 238 235 230 226 221 219 217 215 215 215 217 220 222 221 220 221 217 212 215 217 216 215 219 224 226 228 228 229 228 232 236 233 233 236 237 239 241 243 245 247 247 248 251 254 258 262 265 266 268
256 261 269 267 258 256 249 235 234 226 209 202 191 189 197 193 185 184 191 197 198 202 205 204 210 210 195 196 201 186 193 216 232 236 231 234 240 239 236 232 225 222 225 226 226 228 227 225 222 218 217 221 220 215 214 215 213 212 215 220 225 227 228 230 229 233 238 235 234 237 237 238 240 242 244 247 248 246 248 251 254 258 260 260 260
256 265 273 274 268 260 239 225 227 214 203 207 201 198 204 200 189 185 190 195 194 198 202 197 197 200 191 198 205 193 200 216 237 245 235 233 239 240 241 241 233 225 225 226 228 231 229 222 215 214 213 217 219 220 222 216 210 211 215 218 222 226 227 231 231 235 240 236 233 236 236 237 237 239 241 244 248 249 247 248 251 254 256 257 255
251 265 269 263 260 257 236 222 221 203 193 205 210 202 201 195 185 184 190 195 193 191 195 193 188 194 208 215 212 208 225 225 240 249 240 241 244 238 243 241 230 223 219 217 218 222 223 218 214 215 213 214 216 221 226 221 218 216 217 219 223 226 227 230 231 234 240 236 234 237 237 238 238 237 238 240 245 248 249 248 248 250 253 255 253
241 251 256 245 243 240 221 213 211 196 188 202 205 192 190 187 181 182 185 191 194 186 188 196 189 212 240 247 252 264 264 250 251 262 256 249 240 227 241 243 230 221 218 217 213 211 214 215 213 212 208 213 215 219 226 223 225 224 221 221 225 229 228 231 234 236 240 236 235 238 237 239 239 239 238 237 240 244 247 249 248 248 249 251 252
232 237 245 237 230 213 204 206 208 205 199 199 196 188 181 177 180 181 185 191 187 176 178 212 226 233 253 252 249 266 261 249 249 260 260 257 249 234 240 242 235 222 218 222 219 214 216 217 217 215 208 210 212 210 218 219 221 223 221 220 224 230 230 233 237 239 242 236 236 240 239 239 240 240 239 237 237 240 244 247 247 247 245 247 250
229 230 234 226 213 196 199 207 212 219 210 190 188 192 179 176 180 173 181 188 167 170 184 204 225 229 247 251 257 265 251 247 240 237 247 260 261 252 246 245 244 238 236 239 234 226 219 215 216 217 205 198 206 207 208 211 215 218 219 218 220 226 226 230 232 237 243 235 234 244 241 239 239 239 240 239 238 238 240 244 246 246 244 244 246
223 221 219 209 196 188 200 207 205 212 207 193 191 194 186 186 179 162 182 180 150 175 188 203 228 231 250 264 275 236 242 249 242 237 248 255 254 254 252 253 254 253 257 256 247 238 229 225 222 224 211 193 195 201 204 203 204 207 212 214 217 221 221 226 227 234 246 238 227 240 244 242 242 241 240 238 237 238 239 241 242 244 244 242 242
218 216 210 196 186 186 201 202 193 195 196 198 196 188 185 179 164 166 185 154 147 178 179 213 233 233 262 292 269 240 245 252 251 252 255 253 254 255 253 252 252 256 260 259 256 252 255 262 254 257 253 226 208 197 195 191 188 194 199 202 208 216 219 226 228 230 245 244 230 240 249 246 245 244 242 238 235 235 237 239 240 241 243 241 240
215 215 205 193 189 192 201 197 188 189 190 192 188 176 171 157 150 164 161 137 154 162 145 234 257 244 250 256 246 250 257 259 262 260 252 251 257 261 263 259 254 262 267 263 263 266 269 272 265 260 263 260 249 223 201 185 179 184 190 192 198 211 215 222 228 230 241 245 236 240 246 243 246 248 243 239 237 235 236 237 237 238 240 241 240
215 213 204 198 194 196 204 198 184 184 185 184 178 166 155 149 151 152 147 148 146 138 147 203 266 256 240 224 243 254 257 261 269 267 258 255 259 263 266 267 265 269 266 257 258 261 255 261 257 243 249 258 257 250 235 208 184 176 186 194 195 206 212 218 226 229 237 244 241 241 246 244 246 249 244 241 241 240 239 239 238 237 238 241 241
215 212 206 203 196 198 207 199 181 175 177 177 168 158 151 148 153 152 150 142 132 134 139 160 235 248 281 266 255 254 256 262 267 269 264 255 254 260 266 269 267 262 257 251 249 247 243 252 246 233 237 245 245 244 245 238 205 176 188 199 201 209 213 219 226 227 230 240 244 243 249 251 246 242 239 241 245 245 244 242 241 239 238 240 242
217 210 207 203 195 200 208 200 187 178 177 176 161 153 151 147 150 150 146 134 126 125 109 108 273 13 318 274 253 243 252 264 262 261 262 259 255 256 261 260 260 262 260 255 250 246 239 243 241 235 235 237 241 235 231 241 231 194 196 207 213 218 220 224 228 232 234 239 244 238 239 245 247 245 240 240 246 247 246 245 244 241 239 239 240
218 213 206 200 196 202 203 199 200 190 182 171 151 148 146 144 149 146 139 130 122 114 103 91 65 63 306 280 256 239 242 256 259 258 262 267 268 265 262 254 256 264 260 260 258 250 242 234 232 234 234 231 235 233 226 235 238 219 211 220 222 218 222 229 228 235 241 241 247 247 242 238 239 245 244 239 241 242 242 243 244 243 241 240 240
216 217 204 194 204 205 194 195 204 196 186 165 143 142 144 145 148 142 138 132 124 115 101 81 49 41 6 347 333 293 265 258 259 264 267 269 271 273 275 270 260 257 257 265 265 254 243 230 230 234 233 232 233 235 232 231 234 225 214 220 224 221 225 232 229 231 237 240 246 253 257 252 237 235 237 236 238 239 236 235 238 240 241 242 241
216 219 201 188 212 209 183 187 200 185 169 158 142 141 147 151 148 144 143 133 121 105 90 77 51 39 24 8 3 353 319 286 263 262 265 268 274 277 283 284 272 259 257 262 263 260 249 235 239 239 227 231 236 239 240 233 232 230 222 224 229 232 231 232 235 236 236 240 246 250 256 259 252 247 249 236 232 235 233 234 237 238 240 243 243
216 219 199 188 210 210 178 176 188 179 162 152 148 150 153 154 151 147 141 129 118 104 89 75 59 44 30 21 14 12 356 322 279 260 257 259 267 268 271 275 277 277 274 269 265 261 251 241 246 244 227 231 238 240 242 238 236 236 236 238 239 240 239 235 238 246 248 248 250 252 258 265 276 291 283 252 235 234 234 237 240 240 239 240 241
219 214 200 194 204 204 184 174 173 171 162 157 163 161 154 157 156 144 136 130 119 107 95 80 66 51 37 28 20 11 3 351 316 263 256 250 252 255 260 263 264 272 274 273 268 265 259 249 250 254 247 244 247 248 251 250 250 254 255 261 263 260 260 258 255 257 258 258 258 258 266 275 290 292 274 258 246 245 243 242 243 244 241 238 240
220 205 201 202 203 200 194 180 166 162 163 170 177 164 152 159 155 143 142 137 123 114 104 89 74 59 45 34 26 12 2 0 358 293 258 251 249 252 258 257 248 248 257 263 266 268 268 260 258 263 264 258 258 260 262 260 259 269 277 280 277 272 272 272 267 266 267 271 271 265 269 277 287 282 274 266 253 247 246 247 245 245 242 238 239
224 206 207 207 202 199 201 192 166 160 168 179 184 166 152 159 156 151 153 143 129 119 105 90 75 61 49 35 28 18 11 11 8 354 312 281 266 259 256 254 247 242 244 253 261 261 258 258 259 262 264 263 262 262 264 265 264 269 272 271 274 278 277 272 269 271 274 278 280 279 278 283 287 282 281 274 256 244 241 248 247 244 242 238 240
230 212 213 206 190 182 184 189 180 173 177 186 190 171 153 160 163 162 158 143 132 117 103 84 66 55 45 32 25 20 14 10 4 1 352 325 296 281 272 262 257 252 246 248 257 258 255 256 257 258 259 259 262 264 266 269 269 266 266 267 271 277 276 273 274 278 281 283 285 286 282 286 293 295 304 298 271 257 251 252 243 239 241 239 240
233 213 213 203 181 172 176 191 194 186 183 187 190 169 153 165 169 167 160 143 138 133 120 83 57 41 34 28 21 16 9 6 2 358 357 345 322 302 293 285 276 270 260 251 251 252 249 248 254 258 256 255 259 266 270 269 268 264 264 267 268 271 273 274 278 280 285 286 282 281 279 284 293 292 302 308 289 274 265 256 246 242 247 249 245
234 218 212 202 186 181 182 196 195 185 184 184 181 164 161 176 175 173 171 158 158 157 144 114 53 27 25 23 20 15 9 8 3 357 355 348 332 316 302 294 282 271 264 257 255 254 243 235 244 252 253 253 253 258 263 263 267 271 268 269 270 271 276 282 286 285 285 284 279 281 283 282 285 283 291 303 299 291 277 264 263 259 257 260 261
243 231 217 207 202 193 183 192 188 181 186 183 169 166 178 184 185 188 187 181 177 167 155 146 64 26 17 20 22 19 13 8 2 360 357 354 346 325 294 274 263 255 251 250 251 251 239 228 230 236 240 248 249 255 266 267 270 275 270 270 274 274 277 281 284 288 292 294 294 297 289 282 288 288 289 300 298 294 291 277 275 275 271 272 281
246 242 225 212 207 197 188 191 186 182 187 179 162 169 189 195 203 208 208 208 199 183 166 131 50 14 7 23 33 25 17 7 358 356 357 4 6 340 294 271 257 247 241 244 244 235 232 230 225 224 227 234 233 231 254 268 271 273 268 265 270 274 278 279 280 284 287 288 292 300 294 281 282 284 285 298 298 294 297 293 287 285 289 294 296
233 241 234 221 210 198 194 193 183 178 180 173 165 177 196 208 219 221 222 228 221 209 197 142 19 7 14 39 42 28 18 9 359 354 354 3 12 15 23 296 266 261 242 236 235 217 215 216 212 220 220 219 219 210 219 242 254 267 274 264 257 257 262 270 270 272 280 281 284 299 303 279 261 270 286 292 296 301 308 307 299 295 301 302 297
218 231 239 237 226 216 218 216 206 193 182 179 180 186 200 211 221 224 226 232 230 219 208 184 338 353 31 51 36 23 15 8 1 355 353 359 12 23 36 22 246 246 235 224 220 204 187 184 189 205 204 198 214 212 203 205 217 239 262 257 243 237 242 256 251 249 272 284 284 299 311 294 265 288 296 291 298 308 309 309 308 308 311 306 296
213 217 224 229 225 224 224 220 223 215 200 198 192 186 197 208 215 222 225 232 233 221 210 203 307 329 24 38 21 14 10 4 358 354 351 355 7 24 51 77 179 217 216 205 199 187 174 173 174 179 187 190 196 206 202 195 198 204 209 221 226 226 224 225 251 271 275 281 284 297 315 347 12 345 321 310 312 314 310 310 314 318 320 316 306